Weather History for KRFD - November, 2011

Change the Weather History Date:

Thursday, November 3, 2011

  Actual Average Record
Temperature  
Mean Temperature 41 °F 45 °F  
Max Temperature 48 °F 55 °F 77 °F (1938)
Min Temperature 34 °F 36 °F 11 °F (1951)
Degree Days  
Heating Degree Days 24 20  
Month to date heating degree days 53 58  
Since 1 July heating degree days 575 611  
Cooling Degree Days 0 0  
Month to date cooling degree days 0 0  
Year to date cooling degree days 1019 820  
Moisture  
Dew Point 37 °F    
Average Humidity 77    
Maximum Humidity 93    
Minimum Humidity 60    
Precipitation  
Precipitation 0.50 in 0.09 in 1.65 in (1935)
Month to date precipitation 1.09 0.28  
Year to date precipitation 34.04 31.96  
Snow  
Snow 0.00 in 0.00 in 3.40 in (1951)
Month to date snowfall 0.0 0.0  
Since 1 July snowfall 0.0 0.1  
Since 1 September snowfall 0.0 0.1  
Snow Depth -    
Sea Level Pressure  
Sea Level Pressure 30.10 in    
Wind  
Wind Speed 16 mph (NE)    
Max Wind Speed 29 mph    
Max Gust Speed 35 mph    
Visibility 9 miles    
Events Rain    
T = Trace of Precipitation, MM = Missing Value Source: NWS Daily Summary

Daily Weather History Graph

Daily Weather History Graph

Search for Another Location

Airport or City:

Trip Planner

Search our weather history database for the weather conditions in past years. The results will help you decide how hot, cold, wet, or windy it might be!

Date:

Astronomy

Nov. 03, 2011 Rise Set
Actual Time 7:31 AM CDT 5:47 PM CDT
Civil Twilight 7:02 AM CDT 6:16 PM CDT
Nautical Twilight 6:29 AM CDT 6:50 PM CDT
Astronomical Twilight 5:56 AM CDT 7:22 PM CDT
Moon 2:18 PM CDT (11/3) 12:36 AM CDT (11/3)
Length of Visible Light 11h 14m
Length of Day
10h 16m
First Quarter, 60% of the Moon is Illuminated
Nov 3
First Quarter
Nov 10
Full
Nov 18
Last Quarter
Nov 25
New
Dec 2
First Quarter

Hourly Weather History & Observations

Time (CDT) Temp. Windchill Dew Point Humidity Pressure Visibility Wind Dir Wind Speed Gust Speed Precip Events Conditions
12:07 AM 39.2 °F 31.6 °F 37.4 °F 93% 30.09 in 7.0 mi NNE 12.7 mph - 0.03 in Rain Rain
12:54 AM 39.9 °F 32.1 °F 37.0 °F 89% 30.10 in 6.0 mi NNE 13.8 mph - 0.14 in Rain Rain
1:31 AM 39.2 °F 30.5 °F 37.4 °F 93% 30.06 in 8.0 mi NNE 16.1 mph - 0.07 in Rain Rain
1:54 AM 41.0 °F 33.5 °F 37.9 °F 89% 30.07 in 8.0 mi NNE 13.8 mph - 0.11 in Rain Rain
2:09 AM 41.0 °F 33.9 °F 37.4 °F 87% 30.06 in 7.0 mi NE 12.7 mph - 0.05 in Rain Rain
2:54 AM 42.1 °F 35.2 °F 39.0 °F 89% 30.09 in 7.0 mi NNE 12.7 mph - 0.12 in Rain Light Rain
3:25 AM 41.0 °F 33.5 °F 39.2 °F 93% 30.05 in 6.0 mi NE 13.8 mph - 0.06 in Rain Rain
3:54 AM 41.0 °F 32.5 °F 39.2 °F 93% 30.03 in 8.0 mi NNE 17.3 mph 24.2 mph N/A Rain Rain
4:01 AM 42.8 °F 35.1 °F 39.2 °F 87% 30.03 in 7.0 mi NNE 16.1 mph - 0.01 in Rain Rain
4:08 AM 42.8 °F 34.3 °F 39.2 °F 87% 30.02 in 6.0 mi NNE 19.6 mph - 0.03 in Rain Rain
4:48 AM 42.8 °F 33.8 °F 39.2 °F 87% 30.01 in 10.0 mi NE 21.9 mph 29.9 mph 0.07 in Rain Light Rain
4:54 AM 43.0 °F 34.2 °F 39.0 °F 86% 30.02 in 10.0 mi NE 20.7 mph 27.6 mph 0.08 in Rain Light Rain
5:54 AM 43.0 °F 34.2 °F 39.9 °F 89% 30.02 in 10.0 mi NNE 20.7 mph 25.3 mph 0.03 in Rain Light Rain
6:54 AM 44.1 °F 37.1 °F 39.9 °F 85% 30.03 in 10.0 mi NE 15.0 mph 23.0 mph 0.00 in   Overcast
7:45 AM 44.6 °F 37.2 °F 39.2 °F 81% 30.03 in 10.0 mi NE 17.3 mph 28.8 mph N/A   Overcast
7:54 AM 44.1 °F 36.8 °F 39.0 °F 82% 30.04 in 10.0 mi NE 16.1 mph 26.5 mph N/A   Overcast
8:54 AM 44.1 °F 36.8 °F 39.9 °F 85% 30.08 in 6.0 mi NE 16.1 mph - 0.01 in Rain Light Rain
9:31 AM 44.6 °F 35.9 °F 37.4 °F 76% 30.05 in 8.0 mi NE 23.0 mph 33.4 mph 0.01 in   Light Drizzle
9:54 AM 44.1 °F 36.2 °F 37.0 °F 76% 30.10 in 10.0 mi ENE 18.4 mph 32.2 mph 0.01 in Rain Light Rain
10:54 AM 44.1 °F 35.2 °F 37.9 °F 79% 30.08 in 10.0 mi NE 23.0 mph 33.4 mph 0.00 in Rain Light Rain
11:24 AM 44.6 °F 37.8 °F 39.2 °F 81% 30.10 in 10.0 mi NE 15.0 mph 25.3 mph 0.00 in Rain Light Rain
11:54 AM 45.0 °F 37.1 °F 39.0 °F 80% 30.11 in 10.0 mi NNE 19.6 mph 26.5 mph 0.00 in   Overcast
12:08 PM 46.4 °F 38.1 °F 39.2 °F 76% 30.09 in 10.0 mi NE 24.2 mph 28.8 mph N/A   Overcast
12:54 PM 46.0 °F 39.0 °F 37.0 °F 71% 30.11 in 10.0 mi NE 17.3 mph 28.8 mph N/A   Overcast
1:54 PM 46.0 °F 38.5 °F 36.0 °F 68% 30.11 in 10.0 mi NNE 19.6 mph - N/A   Overcast
2:54 PM 48.0 °F - 36.0 °F 63% 30.10 in 10.0 mi NE 19.6 mph 33.4 mph N/A   Overcast
3:54 PM 46.9 °F - 33.1 °F 59% 30.12 in 10.0 mi NE 20.7 mph 28.8 mph N/A   Overcast
4:54 PM 46.9 °F - 34.0 °F 61% 30.14 in 10.0 mi NNE 18.4 mph 24.2 mph N/A   Overcast
5:54 PM 45.0 °F 38.5 °F 34.0 °F 65% 30.16 in 10.0 mi NNE 13.8 mph 24.2 mph N/A   Overcast
6:54 PM 45.0 °F 37.4 °F 36.0 °F 71% 30.20 in 10.0 mi NNE 18.4 mph 24.2 mph N/A   Overcast
7:54 PM 43.0 °F 35.7 °F 35.1 °F 74% 30.20 in 10.0 mi NNE 15.0 mph - N/A   Overcast
8:54 PM 42.8 °F 35.1 °F 33.8 °F 70% 30.20 in 10.0 mi NNE 16.1 mph - N/A   Mostly Cloudy
9:54 PM 39.9 °F 32.5 °F 32.0 °F 73% 30.23 in 10.0 mi NNE 12.7 mph - N/A   Scattered Clouds
10:54 PM 39.0 °F 33.4 °F 33.1 °F 79% 30.24 in 10.0 mi NE 8.1 mph - N/A   Scattered Clouds
11:54 PM 37.0 °F 31.6 °F 30.9 °F 79% 30.25 in 10.0 mi NE 6.9 mph - N/A   Clear